Flag for Germany Weather past 2 weeks in Monheim am Rhein, North Rhine-Westphalia, Germany

54 °F

Passing clouds.

Feels Like: 53 °F
Forecast: 45 / 60 °F
Wind: 3 mph from Southwest

Location: Duesseldorf

Current Time: Oct 8, 2015 at 10:23:51 PM

Latest Report: Oct 8, 2015 at 9:50 PM

Visibility: N/A

Pressure: 30.18 "Hg

Humidity: 94%

Dew point: 52 °F

Location of Monheim am RheinLocation

Historic Weather in Monheim am Rhein — Graph


Monheim am Rhein temperature yesterday

Maximum temperature yesterday: 63 °F (at 11:50 AM)
Minimum temperature yesterday: 57 °F (at 8:50 PM)
Average temperature yesterday: 60 °F

Past Weeks' High & Low Weather Summary

High68 °F (Oct 3, 3:20 PM)100% (Sep 25, 3:50 AM)30.63 "Hg (Sep 25, 3:50 AM)
Low37 °F (Oct 2, 5:20 AM)43% (Sep 30, 3:20 PM)29.56 "Hg (Oct 6, 5:20 AM)
Average55 °F79%30.18 "Hg
* Reported Sep 23 9:20 PM — Oct 8 9:20 PM, Monheim am Rhein, Weather by CustomWeather, © 2015

Note: Actual official high and low records may vary slightly from our data, if they occured in-between our weather recording intervals... More about our weather records


Monheim am Rhein weather history for previous 24 hours

Time TempWeatherWind HumidityBarometerVisibility
9:20 PM
Thu, Oct 8
54 °FPassing clouds.3 mph94%30.18 "HgN/A
8:50 PM54 °FPartly cloudy.2 mph94%30.18 "HgN/A
8:20 PM54 °FPassing clouds.3 mph94%30.15 "HgN/A
7:50 PM54 °FBroken clouds.3 mph100%30.15 "HgN/A
7:20 PM54 °FBroken clouds.6 mph100%30.15 "Hg4 mi
6:50 PM54 °FBroken clouds.6 mph94%30.15 "Hg5 mi
6:20 PM55 °FBroken clouds.5 mph94%30.15 "Hg5 mi
5:50 PM54 °FDrizzle. Fog.5 mph94%30.15 "Hg2 mi
5:20 PM55 °FDrizzle. Broken clouds.6 mph88%30.15 "HgN/A
4:50 PM55 °FPartly sunny.5 mph88%30.15 "HgN/A
4:20 PM55 °FBroken clouds.3 mph88%30.15 "HgN/A
3:50 PM55 °FDrizzle. Broken clouds.5 mph94%30.15 "HgN/A
3:20 PM55 °FDrizzle. Partly sunny.3 mph94%30.15 "HgN/A
2:50 PM55 °FDrizzle. Partly sunny.6 mph94%30.12 "HgN/A
2:20 PM55 °FDrizzle. Broken clouds.7 mph94%30.12 "HgN/A
1:50 PM55 °FDrizzle. Broken clouds.7 mph94%30.12 "HgN/A
1:20 PM57 °FLight rain. Broken clouds.7 mph94%30.12 "HgN/A
12:50 PM55 °FBroken clouds.5 mph100%30.12 "HgN/A
12:20 PM55 °FBroken clouds.7 mph100%30.12 "Hg5 mi
11:50 AM55 °FDrizzle. Fog.6 mph100%30.12 "Hg3 mi
11:20 AM55 °FDrizzle. Fog.8 mph94%30.12 "Hg2 mi
10:50 AM54 °FDrizzle. Fog.7 mph100%30.09 "Hg2 mi
10:20 AM54 °FDrizzle. Fog.7 mph100%30.09 "Hg2 mi
9:50 AM54 °FDrizzle. Fog.7 mph100%30.09 "Hg2 mi
9:20 AM54 °FDrizzle. Fog.7 mph100%30.07 "Hg2 mi
8:50 AM54 °FDrizzle. Mostly cloudy.8 mph100%30.07 "Hg2 mi
8:20 AM54 °FDrizzle. Mostly cloudy.8 mph100%30.07 "Hg2 mi
7:50 AM54 °FDrizzle. Mostly cloudy.8 mph100%30.07 "Hg2 mi
7:20 AM54 °FDrizzle. Mostly cloudy.7 mph100%30.04 "Hg2 mi
6:50 AM54 °FDrizzle. Mostly cloudy.8 mph100%30.04 "Hg2 mi
5:20 AM54 °FDrizzle. Mostly cloudy.7 mph100%30.04 "Hg2 mi
4:50 AM54 °FDrizzle. Low clouds.7 mph94%30.04 "Hg2 mi
4:20 AM55 °FDrizzle. Low clouds.8 mph88%30.04 "Hg6 mi
3:50 AM55 °FLow clouds.8 mph88%30.01 "HgN/A
3:20 AM55 °FOvercast.9 mph88%30.01 "HgN/A
2:50 AM55 °FOvercast.7 mph88%30.01 "HgN/A
2:20 AM55 °FOvercast.10 mph88%30.01 "HgN/A
1:50 AM55 °FOvercast.9 mph88%30.01 "HgN/A
1:20 AM57 °FOvercast.10 mph82%30.01 "HgN/A
12:50 AM57 °FOvercast.14 mph82%30.01 "HgN/A
12:20 AM57 °FOvercast.10 mph88%30.01 "HgN/A
11:50 PM
Wed, Oct 7
57 °FOvercast.10 mph88%30.01 "HgN/A
11:20 PM57 °FOvercast.10 mph88%30.01 "HgN/A
10:50 PM57 °FOvercast.9 mph88%29.98 "HgN/A
10:20 PM57 °FDrizzle. Overcast.10 mph88%29.98 "HgN/A
Weather by CustomWeather, © 2015

See weather overviewHow to use our weather pages